{"data":{"norad_id":57123,"epoch":"2026-05-25T04:00:03.998880Z","epoch_age_seconds":57861,"freshness":"FRESH","line1":"1 57123U 23090Y   26145.16671295  .00025006  00000+0  91517-3 0  9995","line2":"2 57123  43.0008 209.6554 0001727 269.7015 261.6723 15.27578793  5896","mean_motion":15.27578793,"eccentricity":0.0001727,"inclination_deg":43.0008,"raan_deg":209.6554,"arg_perigee_deg":269.7015,"mean_anomaly_deg":261.6723,"bstar":0.00091517,"rev_number":589,"period_min":94.266823197512,"perigee_km":481.86778277129,"apogee_km":484.23763769721,"semimajor_km":6861.1897102342,"source":"CELESTRAK","updated_at":"2026-05-25T13:38:18.243770Z"}}